Location: San Pelegr�n
(42.1868°N, 0.0079°E)
Time: 14:26:08
(UTC+00:00)

USA 238 - Pass Details

Date: 24 January 2020
Orbit: 1023 x 1189 km, 63.4° (Epoch: 20 February)

Event Time Altitude Azimuth Distance (km) Brightness Sun altitude
Rises 19:20:43 0° 195° (SSW) 3,754 6.8 -25.3°
Reaches altitude 10° 19:23:22 10° 191° (S) 2,812 6.0 -25.8°
Enters shadow 19:28:47 47° 143° (SE) 1,346 3.9 -26.8°
